This is the latest recevied weather packets stored in our database for station/object VK3MAK-1. If no packets are shown the sender has not sent any weather packets the latest 10 day(s).
| Time | Temp. | Humidity | Pressure | Rain* | Wind** | Luminosity | Snow |
|---|---|---|---|---|---|---|---|
| 1777800604 | 13.33° C | 69% | 1010.2 hPa | 0 mm | 3.13 m/s, 0° | - | - |
| 1777800004 | 13.33° C | 69% | 1010.2 hPa | 0 mm | 3.13 m/s, 0° | - | - |
| 1777799403 | 13.33° C | 69% | 1010.2 hPa | 0 mm | 3.13 m/s, 0° | - | - |
| 1777798804 | 15° C | 64% | 1010 hPa | 0 mm | 3.13 m/s, 0° | - | - |
| 1777798203 | 15° C | 64% | 1010 hPa | 0 mm | 3.13 m/s, 0° | - | - |
| 1777797603 | 15° C | 64% | 1010 hPa | 0 mm | 3.13 m/s, 0° | - | - |
| 1777797005 | 14.44° C | 65% | 1009.7 hPa | 0 mm | 3.13 m/s, 338° | - | - |
| 1777796404 | 14.44° C | 65% | 1009.7 hPa | 0 mm | 3.13 m/s, 338° | - | - |
| 1777795803 | 14.44° C | 65% | 1009.7 hPa | 0 mm | 3.13 m/s, 338° | - | - |
| 1777795203 | 15.56° C | 59% | 1009.2 hPa | 0 mm | 4.47 m/s, 338° | - | - |
| 1777794603 | 15.56° C | 59% | 1009.2 hPa | 0 mm | 4.47 m/s, 338° | - | - |
| 1777794003 | 15.56° C | 59% | 1009.2 hPa | 0 mm | 4.47 m/s, 338° | - | - |
| 1777793403 | 16.11° C | 53% | 1008.8 hPa | 0 mm | 5.36 m/s, 338° | - | - |
| 1777792803 | 16.11° C | 53% | 1008.8 hPa | 0 mm | 5.36 m/s, 338° | - | - |
| 1777792203 | 16.11° C | 53% | 1008.8 hPa | 0 mm | 5.36 m/s, 338° | - | - |
| 1777791603 | 18.33° C | 48% | 1008.8 hPa | 0 mm | 5.36 m/s, 338° | - | - |
| 1777791004 | 18.33° C | 48% | 1008.8 hPa | 0 mm | 5.36 m/s, 338° | - | - |
| 1777790404 | 18.33° C | 48% | 1008.8 hPa | 0 mm | 5.36 m/s, 338° | - | - |
| 1777789804 | 18.33° C | 48% | 1008.8 hPa | 0 mm | 5.81 m/s, 338° | - | - |
| 1777789203 | 18.33° C | 48% | 1008.8 hPa | 0 mm | 5.81 m/s, 338° | - | - |
| 1777788604 | 18.33° C | 48% | 1008.8 hPa | 0 mm | 5.81 m/s, 338° | - | - |
| 1777788003 | 18.89° C | 46% | 1008.8 hPa | 0 mm | 7.15 m/s, 338° | - | - |
| 1777787403 | 18.89° C | 46% | 1008.8 hPa | 0 mm | 7.15 m/s, 338° | - | - |
| 1777786804 | 18.89° C | 46% | 1008.8 hPa | 0 mm | 7.15 m/s, 338° | - | - |
| 1777786203 | 18.33° C | 47% | 1008.6 hPa | 0 mm | 6.71 m/s, 338° | - | - |
* Rain latest hour (hover to see other rain measurements)
** Current wind speed in m/s (hover to see current wind gust speed)